Terminal Aerodrome Forecast
Issued by NWS Brownsville, TX

Home | Current Version | Previous Version | Text Only | Print | Product List | Glossary On
Versions: 1 2 3 4 5 6 7 8 9 10 11 12 13 14 15 16 17 18 19 20 21 22
000
FTUS44 KBRO 022323
TAFBRO
TAF
KBRO 022323Z 0300/0324 36007KT 3/4SM BR OVC002
     FM030400 16005KT 1/4SM FG VV001
     FM031500 16010KT P6SM BKN015
     FM031700 16020G28KT P6SM BKN030=

USA.gov is the U.S. government's official web portal to all federal, state and local government web resources and services.